Weather History for Debrecen, Hungary

Change the Weather History Date:

Tuesday, May 28, 2013

  Actual Average Record
Temperature  
Mean Temperature 57 °F -  
Max Temperature 65 °F 76 °F - ()
Min Temperature 49 °F 56 °F - ()
Degree Days  
Heating Degree Days 8    
Growing Degree Days 7 (Base 50)    
Moisture  
Dew Point 51 °F    
Average Humidity 80    
Maximum Humidity 94    
Minimum Humidity 64    
Precipitation  
Precipitation 0.03 in 0.10 in - ()
Sea Level Pressure  
Sea Level Pressure 29.82 in    
Wind  
Wind Speed 9 mph ()    
Max Wind Speed 15 mph    
Max Gust Speed -    
Visibility 6.9 miles    
Events Rain    
T = Trace of Precipitation, MM = Missing Value Source: Averaged Metar Reports

Daily Weather History Graph

Daily Weather History Graph

Search for Another Location

Airport:

Trip Planner

Search our weather history database for the weather conditions in past years. The results will help you decide how hot, cold, wet, or windy it might be!

Date:

Astronomy

May. 28, 2013 Rise Set
Actual Time 4:43 AM CEST 8:18 PM CEST
Civil Twilight 4:04 AM CEST 8:57 PM CEST
Nautical Twilight 3:13 AM CEST 9:49 PM CEST
Astronomical Twilight 2:03 AM CEST 11:00 PM CEST
Moon 11:20 PM CEST (5/28) 8:15 AM CEST (5/28)
Length of Visible Light 16h 53m
Length of Day
15h 35m
Waning Gibbous, 85% of the Moon is Illuminated
May 28
Waning Gibbous
May 31
Last Quarter
Jun 8
New
Jun 16
First Quarter
Jun 23
Full

Hourly Weather History & Observations

Time (CEST) Temp. Dew Point Humidity Pressure Visibility Wind Dir Wind Speed Gust Speed Precip Events Conditions
2:00 AM 51 °F 49 °F 92% 29.83 in - SSW 8.9 mph - -  
4:45 AM 50.0 °F 48.2 °F 94% 29.83 in 6.2 mi SW 8.1 mph - N/A   Mostly Cloudy
5:45 AM 50.0 °F 48.2 °F 94% 29.83 in 5.0 mi SSW 6.9 mph - N/A   Scattered Clouds
6:15 AM 50.0 °F 48.2 °F 94% 29.83 in 5.0 mi SSW 9.2 mph - N/A   Overcast
6:45 AM 51.8 °F 50.0 °F 94% 29.83 in 6.2 mi SSW 9.2 mph - N/A   Mostly Cloudy
7:00 AM - - N/A% - 6.2 mi SSW 10.4 mph - N/A   Mostly Cloudy
7:15 AM 51.8 °F 50.0 °F 94% 29.83 in 6.2 mi SSW 11.5 mph - N/A   Mostly Cloudy
7:20 AM 51.8 °F 50.0 °F 94% 29.83 in - SSW 11.5 mph - N/A   Unknown
7:45 AM 51.8 °F 50.0 °F 94% 29.86 in 6.2 mi SSW 11.5 mph - N/A   Overcast
8:00 AM 52 °F 50 °F 89% 29.85 in 12 mi SSW 11.2 mph - -   Partly Cloudy
8:15 AM 53.6 °F 48.2 °F 82% 29.86 in 6.2 mi SW 9.2 mph - N/A   Overcast
8:45 AM 53.6 °F 50.0 °F 88% 29.86 in 6.2 mi SSW 9.2 mph - N/A   Overcast
9:15 AM 53.6 °F 50.0 °F 88% 29.86 in 6.2 mi SSW 9.2 mph - N/A   Overcast
9:45 AM 53.6 °F 50.0 °F 88% 29.86 in 6.2 mi SSW 9.2 mph - N/A   Mostly Cloudy
10:00 AM - - N/A% - 6.2 mi SSW 10.4 mph - N/A   Mostly Cloudy
10:15 AM 55.4 °F 50.0 °F 82% 29.86 in 6.2 mi SSW 9.2 mph - N/A   Mostly Cloudy
10:45 AM 57.2 °F 50.0 °F 77% 29.86 in 6.2 mi SSW 12.7 mph - N/A   Mostly Cloudy
11:15 AM 57.2 °F 50.0 °F 77% 29.86 in 6.2 mi SSW 13.8 mph - N/A   Mostly Cloudy
11:45 AM 57.2 °F 50.0 °F 77% 29.86 in 6.2 mi SSW 13.8 mph - N/A   Scattered Clouds
12:15 PM 57.2 °F 51.8 °F 82% 29.86 in 6.2 mi South 11.5 mph - N/A   Mostly Cloudy
12:45 PM 57.2 °F 50.0 °F 77% 29.83 in 6.2 mi South 11.5 mph - N/A   Scattered Clouds
1:00 PM - - N/A% - 6.2 mi SSW 11.5 mph - N/A   Mostly Cloudy
1:15 PM 59.0 °F 51.8 °F 77% 29.83 in 6.2 mi SSE 9.2 mph - N/A   Scattered Clouds
1:45 PM 60.8 °F 53.6 °F 77% 29.83 in 6.2 mi South 9.2 mph - N/A   Scattered Clouds
2:00 PM 61 °F 54 °F 70% 29.82 in 19 mi South 8.9 mph - -   Partly Cloudy
2:15 PM 60.8 °F 53.6 °F 77% 29.83 in 6.2 mi South 8.1 mph - N/A Rain Light Rain Showers
2:45 PM 62.6 °F 53.6 °F 72% 29.80 in 6.2 mi SSW 13.8 mph - N/A   Scattered Clouds
3:15 PM 64.4 °F 51.8 °F 64% 29.80 in 6.2 mi SSW 11.5 mph - N/A   Scattered Clouds
3:45 PM 64.4 °F 51.8 °F 64% 29.80 in 6.2 mi SSW 15.0 mph - N/A   Mostly Cloudy
4:15 PM 64.4 °F 51.8 °F 64% 29.80 in 6.2 mi SSW 15.0 mph - N/A   Mostly Cloudy
4:45 PM 64.4 °F 51.8 °F 64% 29.80 in 6.2 mi SSW 15.0 mph - N/A   Overcast
5:15 PM 64.4 °F 51.8 °F 64% 29.80 in 6.2 mi South 13.8 mph - N/A   Overcast
5:45 PM 60.8 °F 55.4 °F 82% 29.80 in 6.2 mi South 6.9 mph - N/A   Overcast
6:15 PM 62.6 °F 51.8 °F 68% 29.77 in 6.2 mi SSW 10.4 mph - N/A   Overcast
6:45 PM 62.6 °F 53.6 °F 72% 29.77 in 6.2 mi South 9.2 mph - N/A   Mostly Cloudy
7:15 PM 62.6 °F 53.6 °F 72% 29.80 in 6.2 mi South 8.1 mph - N/A   Mostly Cloudy
7:45 PM 60.8 °F 53.6 °F 77% 29.80 in - South 4.6 mph - N/A   Clear
8:00 PM 61 °F 53 °F 67% 29.78 in 16 mi South 4.5 mph - -   Partly Cloudy
8:15 PM 59.0 °F 53.6 °F 82% 29.77 in - South 5.8 mph - N/A   Clear
8:45 PM 57.2 °F 51.8 °F 82% 29.80 in - SSE 5.8 mph - N/A   Clear